Tracking 28790 objects as of 19-Apr-2024
HD Live streaming from Space Station
objects crossing your sky now

FENGYUN 1C DEB

Track FENGYUN 1C DEB now!
10-day predictions


NORAD ID: 29938
Int'l Code: 1999-025JL
Perigee: 853.3 km
Apogee: 901.5 km
Inclination: 98.8 °
Period: 102.4 minutes
Semi major axis: 7248 km
RCS: 0.0915 m2 (small)
Launch date: May 10, 1999
Source: People's Republic of China (PRC)
Launch site: Taiyaun Space Center, China (TSC)

Note: This is SATELLITE DEBRIS
Your satellite tracking list
Your tracking list is empty




NASA's NSSDC Master Catalog

Two Line Element Set (TLE):
1 29938U 99025JL  24109.97030703  .00000428  00000-0  28154-3 0  9998
2 29938  98.7699 110.9295 0033260 204.2897 210.1486 14.06831203885791
Source of the keplerian elements: AFSPC